| time (UTC) | temp F | wind direction | speed knots | gust knots | rain 1hr in | rain 24hr in | rain mn in | humidity % | barometer mb |
| 20260508094519 | 42 | 0.0 | 0.0 | 0.00 | 0.00 | 0.00 | 73 | 1009.8 | |
| 20260508093521 | 42 | 0.0 | 0.0 | 0.00 | 0.00 | 0.00 | 73 | 1009.7 | |
| 20260508092522 | 42 | 0.0 | 0.0 | 0.00 | 0.00 | 0.00 | 73 | 1009.7 | |
| 20260508091633 | 42 | 0.0 | 5.2 | 0.00 | 0.00 | 0.00 | 73 | 1009.6 | |
| 20260508090519 | 42 | 45 | 0.9 | 7.0 | 0.00 | 0.00 | 0.00 | 73 | 1009.7 |
| 20260508085526 | 42 | 169 | 0.0 | 2.6 | 0.00 | 0.00 | 0.00 | 73 | 1009.7 |
| 20260508084520 | 42 | 328 | 0.9 | 5.2 | 0.00 | 0.00 | 0.00 | 72 | 1009.6 |
| 20260508083523 | 42 | 203 | 0.9 | 7.0 | 0.00 | 0.00 | 0.00 | 72 | 1009.6 |
| 20260508082537 | 42 | 293 | 0.9 | 7.0 | 0.00 | 0.00 | 0.00 | 71 | 1009.6 |
| 20260508081626 | 42 | 127 | 1.7 | 5.2 | 0.00 | 0.00 | 0.00 | 71 | 1009.6 |
| 20260508080635 | 42 | 0.0 | 0.0 | 0.00 | 0.00 | 0.00 | 71 | 1009.5 | |
| 20260508075525 | 43 | 270 | 0.9 | 5.2 | 0.00 | 0.00 | 0.00 | 71 | 1009.4 |
| 20260508074535 | 43 | 180 | 0.9 | 4.3 | 0.00 | 0.00 | 0.00 | 70 | 1009.4 |
| 20260508073521 | 43 | 253 | 1.7 | 5.2 | 0.00 | 0.00 | 0.00 | 69 | 1009.4 |
| 20260508072531 | 43 | 225 | 0.9 | 4.3 | 0.00 | 0.00 | 0.00 | 69 | 1009.3 |
| 20260508071537 | 43 | 229 | 0.9 | 4.3 | 0.00 | 0.00 | 0.00 | 68 | 1009.2 |
| 20260508070519 | 43 | 327 | 3.5 | 9.6 | 0.00 | 0.00 | 0.00 | 69 | 1009.2 |
| 20260508065529 | 43 | 276 | 2.6 | 7.0 | 0.00 | 0.00 | 0.00 | 69 | 1009.3 |
| 20260508064520 | 43 | 68 | 0.0 | 2.6 | 0.00 | 0.00 | 0.00 | 69 | 1009.2 |
| 20260508063519 | 43 | 225 | 0.9 | 7.0 | 0.00 | 0.00 | 0.00 | 69 | 1009.2 |
| 20260508062522 | 43 | 17 | 1.7 | 5.2 | 0.00 | 0.00 | 0.00 | 69 | 1009.2 |
| 20260508061523 | 43 | 293 | 0.9 | 7.8 | 0.00 | 0.00 | 0.00 | 69 | 1009.2 |
| 20260508060521 | 43 | 288 | 0.9 | 4.3 | 0.00 | 0.00 | 0.00 | 69 | 1009.3 |
| 20260508055522 | 43 | 0.0 | 2.6 | 0.00 | 0.00 | 0.00 | 69 | 1009.3 | |
| 20260508054535 | 43 | 0.0 | 0.0 | 0.00 | 0.00 | 0.00 | 69 | 1009.4 | |
| 20260508053525 | 43 | 0.0 | 0.0 | 0.00 | 0.00 | 0.00 | 69 | 1009.4 | |
| 20260508052523 | 43 | 225 | 1.7 | 9.6 | 0.00 | 0.00 | 0.00 | 69 | 1009.4 |
| 20260508051524 | 43 | 0.0 | 0.0 | 0.00 | 0.00 | 0.00 | 69 | 1009.3 | |
| 20260508050521 | 43 | 270 | 0.9 | 7.0 | 0.00 | 0.00 | 0.00 | 69 | 1009.3 |
| 20260508045520 | 44 | 243 | 0.9 | 7.8 | 0.00 | 0.00 | 0.00 | 68 | 1009.4 |
| 20260508044528 | 43 | 266 | 1.7 | 7.8 | 0.00 | 0.00 | 0.00 | 68 | 1009.4 |
| 20260508043538 | 43 | 285 | 0.9 | 7.0 | 0.00 | 0.00 | 0.00 | 68 | 1009.4 |
| 20260508041535 | 43 | 180 | 0.9 | 7.8 | 0.00 | 0.00 | 0.00 | 68 | 1009.4 |
| 20260508040522 | 43 | 0.0 | 0.0 | 0.00 | 0.00 | 0.00 | 68 | 1009.4 | |
| 20260508035532 | 42 | 0.0 | 0.0 | 0.00 | 0.00 | 0.00 | 69 | 1009.4 | |
| 20260508034520 | 42 | 0.0 | 0.0 | 0.00 | 0.00 | 0.00 | 69 | 1009.3 | |
| 20260508033528 | 41 | 0.0 | 0.0 | 0.00 | 0.00 | 0.00 | 70 | 1009.4 | |
| 20260508032521 | 41 | 0.0 | 0.0 | 0.00 | 0.00 | 0.00 | 70 | 1009.3 | |
| 20260508031528 | 41 | 0.0 | 0.0 | 0.00 | 0.00 | 0.00 | 70 | 1009.3 | |
| 20260508030523 | 41 | 0.0 | 0.0 | 0.00 | 0.00 | 0.00 | 68 | 1009.3 | |
| 20260508025523 | 42 | 0.0 | 0.0 | 0.00 | 0.00 | 0.00 | 67 | 1009.3 | |
| 20260508024521 | 43 | 0.0 | 0.0 | 0.00 | 0.00 | 0.00 | 66 | 1009.3 | |
| 20260508022529 | 44 | 0.0 | 0.0 | 0.00 | 0.00 | 0.00 | 64 | 1009.3 | |
| 20260508020520 | 46 | 0.0 | 0.0 | 0.00 | 0.00 | 0.00 | 62 | 1009.3 | |
| 20260508015525 | 46 | 0.0 | 0.0 | 0.00 | 0.00 | 0.00 | 61 | 1009.3 | |
| 20260508014527 | 47 | 0.0 | 0.0 | 0.00 | 0.00 | 0.00 | 60 | 1009.2 | |
| 20260508013531 | 47 | 302 | 0.9 | 7.0 | 0.00 | 0.00 | 0.00 | 59 | 1009.1 |
| 20260508011525 | 48 | 0.0 | 2.6 | 0.00 | 0.00 | 0.00 | 59 | 1009.0 | |
| 20260508010525 | 48 | 280 | 1.7 | 7.0 | 0.00 | 0.00 | 0.00 | 57 | 1008.9 |
| 20260508005526 | 49 | 270 | 1.7 | 7.0 | 0.00 | 0.00 | 0.00 | 57 | 1008.8 |
| 20260508004522 | 49 | 270 | 0.9 | 7.0 | 0.00 | 0.00 | 0.00 | 56 | 1008.6 |
| 20260508003524 | 49 | 286 | 1.7 | 10.4 | 0.00 | 0.00 | 0.00 | 55 | 1008.5 |
| 20260508002529 | 49 | 0.0 | 5.2 | 0.00 | 0.00 | 0.00 | 54 | 1008.4 | |
| 20260508001522 | 50 | 258 | 1.7 | 5.2 | 0.00 | 0.00 | 0.00 | 54 | 1008.3 |
| 20260508000522 | 50 | 0.0 | 0.0 | 0.00 | 0.00 | 0.00 | 53 | 1008.2 | |
| 20260507235523 | 50 | 180 | 0.9 | 5.2 | 0.00 | 0.00 | 0.00 | 52 | 1008.2 |
| 20260507234523 | 51 | 340 | 0.9 | 5.2 | 0.00 | 0.00 | 0.00 | 52 | 1008.2 |
| 20260507233526 | 51 | 263 | 2.6 | 7.0 | 0.00 | 0.00 | 0.00 | 52 | 1008.2 |
| 20260507232524 | 52 | 225 | 0.9 | 4.3 | 0.00 | 0.00 | 0.00 | 52 | 1008.2 |
| 20260507231529 | 52 | 270 | 0.9 | 5.2 | 0.00 | 0.00 | 0.00 | 51 | 1008.1 |
| 20260507230522 | 52 | 0.0 | 0.0 | 0.00 | 0.00 | 0.00 | 50 | 1008.1 | |
| 20260507225534 | 53 | 356 | 0.9 | 5.2 | 0.00 | 0.00 | 0.00 | 50 | 1008.1 |
| 20260507224519 | 53 | 251 | 3.5 | 9.6 | 0.00 | 0.00 | 0.00 | 49 | 1008.1 |
| 20260507223532 | 53 | 281 | 0.9 | 4.3 | 0.00 | 0.00 | 0.00 | 48 | 1008.1 |
| 20260507222522 | 53 | 335 | 2.6 | 10.4 | 0.00 | 0.00 | 0.00 | 49 | 1008.1 |
| 20260507221519 | 53 | 25 | 2.6 | 7.8 | 0.00 | 0.00 | 0.00 | 49 | 1008.1 |
| 20260507220530 | 53 | 102 | 4.3 | 7.8 | 0.00 | 0.00 | 0.00 | 48 | 1008.1 |
| 20260507215523 | 53 | 16 | 3.5 | 7.8 | 0.00 | 0.00 | 0.00 | 48 | 1008.1 |
| 20260507214525 | 54 | 51 | 2.6 | 7.0 | 0.00 | 0.00 | 0.00 | 49 | 1008.2 |
| 20260507213520 | 54 | 333 | 1.7 | 7.8 | 0.00 | 0.00 | 0.00 | 47 | 1008.1 |
| 20260507212528 | 55 | 342 | 3.5 | 10.4 | 0.00 | 0.00 | 0.00 | 48 | 1008.1 |
| 20260507211520 | 56 | 132 | 4.3 | 7.8 | 0.00 | 0.00 | 0.00 | 46 | 1008.0 |
| 20260507210520 | 57 | 319 | 5.2 | 12.2 | 0.00 | 0.00 | 0.00 | 46 | 1008.0 |
| 20260507205534 | 57 | 335 | 7.0 | 12.2 | 0.00 | 0.00 | 0.00 | 45 | 1008.1 |
| 20260507204524 | 55 | 353 | 2.6 | 7.8 | 0.00 | 0.00 | 0.00 | 47 | 1008.1 |
| 20260507203524 | 57 | 249 | 4.3 | 14.8 | 0.00 | 0.00 | 0.00 | 46 | 1008.0 |
| 20260507202521 | 58 | 164 | 4.3 | 15.6 | 0.00 | 0.00 | 0.00 | 46 | 1008.1 |
| 20260507201521 | 57 | 54 | 5.2 | 9.6 | 0.00 | 0.00 | 0.00 | 46 | 1008.1 |
| 20260507200521 | 56 | 132 | 4.3 | 14.8 | 0.00 | 0.00 | 0.00 | 47 | 1008.3 |
| 20260507193520 | 56 | 116 | 5.2 | 12.2 | 0.00 | 0.00 | 0.00 | 47 | 1008.4 |
| 20260507192532 | 55 | 288 | 5.2 | 9.6 | 0.00 | 0.00 | 0.00 | 48 | 1008.5 |
| 20260507191522 | 55 | 125 | 7.0 | 14.8 | 0.00 | 0.00 | 0.00 | 49 | 1008.6 |
| 20260507190529 | 55 | 54 | 7.0 | 18.2 | 0.00 | 0.00 | 0.00 | 48 | 1008.7 |
| 20260507185520 | 54 | 61 | 3.5 | 9.6 | 0.00 | 0.00 | 0.00 | 49 | 1008.7 |
| 20260507184622 | 55 | 305 | 7.0 | 14.8 | 0.00 | 0.00 | 0.00 | 48 | 1008.8 |
| 20260507183519 | 56 | 282 | 7.8 | 17.4 | 0.00 | 0.00 | 0.00 | 48 | 1008.8 |
| 20260507182523 | 55 | 44 | 7.8 | 13.0 | 0.00 | 0.00 | 0.00 | 48 | 1008.9 |
| 20260507181522 | 56 | 73 | 7.0 | 17.4 | 0.00 | 0.00 | 0.00 | 49 | 1009.0 |
| 20260507180521 | 54 | 324 | 4.3 | 12.2 | 0.00 | 0.00 | 0.00 | 50 | 1009.0 |
| 20260507175520 | 53 | 23 | 6.1 | 15.6 | 0.00 | 0.00 | 0.00 | 51 | 1009.0 |
| 20260507174531 | 53 | 7 | 8.7 | 18.2 | 0.00 | 0.00 | 0.00 | 49 | 1009.0 |
| 20260507173519 | 53 | 58 | 7.0 | 12.2 | 0.00 | 0.00 | 0.00 | 49 | 1009.0 |
| 20260507172524 | 54 | 334 | 3.5 | 7.8 | 0.00 | 0.00 | 0.00 | 51 | 1009.0 |
| 20260507171526 | 54 | 281 | 8.7 | 14.8 | 0.00 | 0.00 | 0.00 | 49 | 1009.1 |
| 20260507170534 | 55 | 104 | 7.8 | 12.2 | 0.00 | 0.00 | 0.00 | 50 | 1009.2 |
| 20260507165523 | 53 | 239 | 3.5 | 13.0 | 0.00 | 0.00 | 0.00 | 50 | 1009.2 |
| 20260507164651 | 54 | 146 | 7.0 | 10.4 | 0.00 | 0.00 | 0.00 | 50 | 1009.2 |
| 20260507163520 | 53 | 16 | 6.1 | 9.6 | 0.00 | 0.00 | 0.00 | 51 | 1009.3 |
| 20260507162526 | 53 | 184 | 4.3 | 10.4 | 0.00 | 0.00 | 0.00 | 51 | 1009.4 |
| 20260507161527 | 52 | 355 | 7.0 | 13.0 | 0.00 | 0.00 | 0.00 | 54 | 1009.5 |
| 20260507160524 | 51 | 107 | 5.2 | 9.6 | 0.00 | 0.00 | 0.00 | 56 | 1009.5 |
| 20260507155523 | 50 | 176 | 5.2 | 14.8 | 0.00 | 0.00 | 0.00 | 54 | 1009.5 |
| 20260507154521 | 53 | 38 | 8.7 | 15.6 | 0.00 | 0.00 | 0.00 | 50 | 1009.6 |
| 20260507153522 | 50 | 192 | 9.6 | 17.4 | 0.00 | 0.00 | 0.00 | 54 | 1009.8 |
| 20260507152521 | 52 | 62 | 8.7 | 14.8 | 0.00 | 0.00 | 0.00 | 52 | 1009.6 |
| 20260507150524 | 53 | 75 | 5.2 | 10.4 | 0.00 | 0.00 | 0.00 | 54 | 1009.8 |
| 20260507145520 | 55 | 7 | 6.1 | 17.4 | 0.00 | 0.00 | 0.00 | 54 | 1009.6 |
| 20260507144521 | 53 | 10 | 10.4 | 20.9 | 0.00 | 0.00 | 0.00 | 54 | 1009.7 |
| 20260507143522 | 52 | 230 | 11.3 | 23.5 | 0.00 | 0.00 | 0.00 | 54 | 1009.6 |
| 20260507142523 | 51 | 316 | 5.2 | 10.4 | 0.00 | 0.00 | 0.00 | 58 | 1009.5 |
| 20260507141519 | 51 | 289 | 4.3 | 12.2 | 0.00 | 0.00 | 0.00 | 59 | 1009.6 |
| 20260507140527 | 51 | 68 | 7.8 | 15.6 | 0.00 | 0.00 | 0.00 | 59 | 1009.7 |
| 20260507135535 | 51 | 296 | 8.7 | 20.9 | 0.00 | 0.00 | 0.00 | 57 | 1009.7 |
| 20260507134524 | 51 | 302 | 7.0 | 12.2 | 0.00 | 0.00 | 0.00 | 57 | 1009.7 |
| 20260507133524 | 50 | 185 | 5.2 | 15.6 | 0.00 | 0.00 | 0.00 | 60 | 1009.9 |
| 20260507132522 | 49 | 296 | 5.2 | 14.8 | 0.00 | 0.00 | 0.00 | 61 | 1009.9 |
| 20260507131531 | 48 | 310 | 5.2 | 10.4 | 0.00 | 0.00 | 0.00 | 63 | 1009.9 |
| 20260507125527 | 46 | 174 | 4.3 | 7.0 | 0.00 | 0.00 | 0.00 | 66 | 1009.9 |
| 20260507124535 | 46 | 13 | 8.7 | 14.8 | 0.00 | 0.00 | 0.00 | 66 | 1009.8 |
| 20260507123550 | 45 | 131 | 7.8 | 18.2 | 0.00 | 0.00 | 0.00 | 67 | 1009.8 |
| 20260507122519 | 44 | 124 | 6.1 | 13.0 | 0.00 | 0.00 | 0.00 | 67 | 1009.8 |
| 20260507121522 | 44 | 236 | 3.5 | 9.6 | 0.00 | 0.00 | 0.00 | 68 | 1009.7 |
| 20260507120530 | 43 | 154 | 2.6 | 7.8 | 0.00 | 0.00 | 0.00 | 69 | 1009.8 |
| 20260507115519 | 43 | 285 | 5.2 | 7.8 | 0.00 | 0.00 | 0.00 | 70 | 1009.8 |
| 20260507114528 | 41 | 90 | 7.0 | 10.4 | 0.00 | 0.00 | 0.00 | 71 | 1009.8 |
| 20260507113520 | 41 | 48 | 4.3 | 9.6 | 0.00 | 0.00 | 0.00 | 72 | 1009.7 |
| 20260507112520 | 41 | 182 | 5.2 | 12.2 | 0.00 | 0.00 | 0.00 | 72 | 1009.5 |
| 20260507111524 | 40 | 71 | 3.5 | 9.6 | 0.00 | 0.00 | 0.00 | 73 | 1009.5 |
| 20260507110522 | 40 | 356 | 4.3 | 7.8 | 0.00 | 0.00 | 0.00 | 73 | 1009.4 |
| 20260507105527 | 40 | 320 | 2.6 | 7.0 | 0.00 | 0.00 | 0.00 | 74 | 1009.3 |
| 20260507104520 | 39 | 73 | 3.5 | 9.6 | 0.00 | 0.00 | 0.00 | 75 | 1009.0 |
| 20260507103529 | 39 | 353 | 1.7 | 5.2 | 0.00 | 0.00 | 0.00 | 76 | 1009.0 |
| 20260507102521 | 38 | 0.0 | 5.2 | 0.00 | 0.00 | 0.00 | 76 | 1008.9 | |
| 20260507101525 | 38 | 192 | 1.7 | 5.2 | 0.00 | 0.00 | 0.00 | 76 | 1008.7 |
| 20260507100533 | 38 | 0.0 | 0.0 | 0.00 | 0.00 | 0.00 | 76 | 1008.7 | |
| 20260507095523 | 38 | 193 | 0.9 | 4.3 | 0.00 | 0.00 | 0.00 | 76 | 1008.6 |